Coronado, California, United States (92118)
Lat: 32.69N, Lon: 117.18W
Wx Zone: CAZ043
Local Info
Past Weather Observations for Today

NOTE: This archive is for the closest National Weather Service station to Coronado. Information may differ from the station used for current weather conditions.

Click here for Long-term Archive

Time Weather Temperature Dewpoint Humidity Pressure Winds Precip Visibility
20:52
Mostly Cloudy
72°F / 22°C 64°F / 18°C 78% 29.98 in
(1015 mb)
SSW 5.8 mph
(SSW 9 kph)
- 8SM
20:49
Mostly Cloudy
72°F / 22°C 64°F / 18°C 78% 29.98 in
(1015 mb)
SSW 5.8 mph
(SSW 9 kph)
- 8SM
19:52
Mostly Cloudy
72°F / 22°C 63°F / 17°C 73% 29.98 in
(1015 mb)
W 5.8 mph
(W 9 kph)
- 10SM
18:52
Mostly Cloudy
72°F / 22°C 63°F / 17°C 73% 29.98 in
(1015 mb)
SSW 6.9 mph
(SSW 11 kph)
- 10SM
17:52
Mostly Cloudy
73°F / 23°C 64°F / 18°C 74% 29.95 in
(1014 mb)
WNW 9.2 mph
(WNW 15 kph)
- 10SM
16:52
Mostly Cloudy
73°F / 23°C 64°F / 18°C 74% 29.95 in
(1014 mb)
NW 11.5 mph
(NW 19 kph)
- 10SM
15:52
Mostly Cloudy
77°F / 25°C 66°F / 19°C 69% 29.95 in
(1014 mb)
Variable 6.9 mph
(Variable 11 kph)
- 10SM
14:52
Mostly Cloudy
77°F / 25°C 66°F / 19°C 69% 29.98 in
(1015 mb)
Variable 6.9 mph
(Variable 11 kph)
- 10SM
13:52
Mostly Cloudy
79°F / 26°C 66°F / 19°C 65% 29.98 in
(1015 mb)
W 8.1 mph
(W 13 kph)
- 10SM
12:52
Mostly Cloudy
75°F / 24°C 66°F / 19°C 74% 30.01 in
(1016 mb)
W 9.2 mph
(W 15 kph)
- 10SM
11:52
Mostly Cloudy
75°F / 24°C 66°F / 19°C 74% 30.01 in
(1016 mb)
NW 11.5 mph
(NW 19 kph)
- 9SM
10:52
Mostly Cloudy
75°F / 24°C 66°F / 19°C 74% 30.01 in
(1016 mb)
NW 11.5 mph
(NW 19 kph)
- 9SM
09:52
Mostly Cloudy
75°F / 24°C 66°F / 19°C 74% 30.04 in
(1017 mb)
NW 10.4 mph
(NW 17 kph)
- 9SM
09:40
Mostly Cloudy
75°F / 24°C 66°F / 19°C 74% 30.04 in
(1017 mb)
NW 10.4 mph
(NW 17 kph)
- 8SM
08:52
Overcast
73°F / 23°C 66°F / 19°C 78% 30.04 in
(1017 mb)
NW 5.8 mph
(NW 9 kph)
- 7SM
07:52
Overcast
72°F / 22°C 64°F / 18°C 78% 30.04 in
(1017 mb)
NW 4.6 mph
(NW 7 kph)
- 10SM
06:52
Overcast
72°F / 22°C 64°F / 18°C 78% 30.04 in
(1017 mb)
W 3.5 mph
(W 6 kph)
- 10SM
05:52
Overcast
72°F / 22°C 64°F / 18°C 78% 30.04 in
(1017 mb)
Calm - 10SM
04:52
Overcast
72°F / 22°C 64°F / 18°C 78% 30.01 in
(1016 mb)
Calm - 9SM
03:52
Overcast
72°F / 22°C 64°F / 18°C 78% 30.01 in
(1016 mb)
Calm - 9SM
02:52
Overcast
72°F / 22°C 64°F / 18°C 78% 30.01 in
(1016 mb)
Variable 3.5 mph
(Variable 6 kph)
- 9SM
01:52
Overcast
72°F / 22°C 64°F / 18°C 78% 30.01 in
(1016 mb)
Variable 3.5 mph
(Variable 6 kph)
- 9SM
00:52
Overcast
72°F / 22°C 64°F / 18°C 78% 30.04 in
(1017 mb)
W 6.9 mph
(W 11 kph)
- 8SM
Time Weather Temperature Dewpoint Humidity Pressure Winds Precip Visibility


Weather for websites

WeatherForYou.com, LLC is not responsible for any damages or problems caused by this service. Current weather conditions are obtained from the closest station including government and personal stations which may have varying degrees of accuracy. Weather forecasts are derived from the NOAA NDFD. Like all things, this site belongs to Jesus Christ... He just trusts us to maintain it. If you have any questions or comments email webmaster@weatherforyou.com

Copyright © 2015, WeatherForYou.com LLC. All rights reserved.